• In Latvia
  • List of Countries
  • For 7 days
  • Water Temperature
  • Satellite Maps
  • Weather Map
  • Weather Widgets
  • user-avatar
    Login

    Hourly Weather Andora

    Today, 22 June, Thursday

    Time Temperature Precipitation Wind Pressure Humidity
    00:00 +13°C° 0 mm 1 mps 627 mmHg 81%
    01:00 +13°C° 0.2 mm 1 mps 627 mmHg 81%
    02:00 +12°C° 0.2 mm 1 mps 627 mmHg 81%
    03:00 +12°C° 0.2 mm 1 mps 626 mmHg 81%
    04:00 +13°C° 0 mm 0 mps 627 mmHg 78%
    05:00 +15°C° 0 mm 0 mps 629 mmHg 74%
    06:00 +20°C° 0 mm 1 mps 630 mmHg 66%
    07:00 +21°C° 0 mm 1 mps 631 mmHg 58%
    08:00 +21°C° 0 mm 0 mps 631 mmHg 50%
    09:00 +23°C° 0 mm 0 mps 632 mmHg 43%
    10:00 +26°C° 0.2 mm 1 mps 632 mmHg 41%
    11:00 +27°C° 0.2 mm 1 mps 632 mmHg 40%
    12:00 +27°C° 0 mm 1 mps 633 mmHg 39%
    13:00 +27°C° 0.8 mm 1 mps 632 mmHg 41%
    14:00 +27°C° 0.8 mm 1 mps 632 mmHg 43%
    15:00 +26°C° 0.8 mm 1 mps 632 mmHg 45%
    16:00 +25°C° 0.5 mm 1 mps 632 mmHg 49%
    17:00 +25°C° 0.5 mm 1 mps 631 mmHg 53%
    18:00 +24°C° 0.5 mm 1 mps 631 mmHg 58%
    19:00 +21°C° 0.1 mm 1 mps 630 mmHg 65%
    20:00 +18°C° 0.1 mm 1 mps 630 mmHg 72%
    21:00 +14°C° 0.1 mm 1 mps 629 mmHg 79%
    22:00 +14°C° 0 mm 1 mps 629 mmHg 80%
    23:00 +14°C° 0 mm 1 mps 629 mmHg 80%

    Tomorrow, 23 June, Friday

    Time Temperature Precipitation Wind Pressure Humidity
    00:00 +14°C° 0 mm 1 mps 629 mmHg 81%
    01:00 +14°C° 0.2 mm 1 mps 629 mmHg 81%
    02:00 +13°C° 0.2 mm 1 mps 629 mmHg 82%
    03:00 +13°C° 0.2 mm 1 mps 629 mmHg 83%
    04:00 +15°C° 0.3 mm 1 mps 630 mmHg 80%
    05:00 +16°C° 0.3 mm 1 mps 630 mmHg 76%
    06:00 +19°C° 0.3 mm 1 mps 631 mmHg 73%
    07:00 +20°C° 0.2 mm 1 mps 632 mmHg 66%
    08:00 +22°C° 0.2 mm 1 mps 633 mmHg 58%
    09:00 +24°C° 0.2 mm 2 mps 633 mmHg 51%
    10:00 +25°C° 0.5 mm 2 mps 633 mmHg 50%
    11:00 +25°C° 0.5 mm 2 mps 634 mmHg 48%
    12:00 +26°C° 0.5 mm 2 mps 634 mmHg 47%
    13:00 +26°C° 0.9 mm 2 mps 633 mmHg 48%
    14:00 +26°C° 0.9 mm 2 mps 633 mmHg 50%
    15:00 +26°C° 0.9 mm 2 mps 633 mmHg 51%
    16:00 +25°C° 0.8 mm 2 mps 632 mmHg 57%
    17:00 +24°C° 0.8 mm 2 mps 632 mmHg 63%
    18:00 +23°C° 0.8 mm 1 mps 631 mmHg 69%
    19:00 +20°C° 0.4 mm 1 mps 631 mmHg 75%
    20:00 +18°C° 0.4 mm 1 mps 630 mmHg 82%
    21:00 +15°C° 0.4 mm 1 mps 630 mmHg 88%
    22:00 +14°C° 0.5 mm 1 mps 630 mmHg 89%
    23:00 +14°C° 0.5 mm 1 mps 630 mmHg 90%

    Day after tomorrow, 24 June, Saturday

    Time Temperature Precipitation Wind Pressure Humidity
    00:00 +14°C° 0.5 mm 1 mps 629 mmHg 91%
    01:00 +13°C° 0.1 mm 1 mps 629 mmHg 91%
    02:00 +13°C° 0.1 mm 1 mps 629 mmHg 91%
    03:00 +13°C° 0.1 mm 1 mps 629 mmHg 91%
    04:00 +14°C° 0 mm 1 mps 629 mmHg 87%
    05:00 +15°C° 0 mm 1 mps 630 mmHg 84%
    06:00 +16°C° 0 mm 1 mps 630 mmHg 81%
    07:00 +19°C° 0.1 mm 1 mps 631 mmHg 72%
    08:00 +20°C° 0.1 mm 2 mps 631 mmHg 64%
    09:00 +21°C° 0.1 mm 2 mps 632 mmHg 55%
    10:00 +23°C° 0.2 mm 2 mps 632 mmHg 52%
    11:00 +24°C° 0.2 mm 3 mps 632 mmHg 48%
    12:00 +25°C° 0.2 mm 3 mps 632 mmHg 44%
    13:00 +25°C° 0.3 mm 3 mps 632 mmHg 45%
    14:00 +25°C° 0.3 mm 3 mps 631 mmHg 46%
    15:00 +25°C° 0.3 mm 3 mps 631 mmHg 46%
    16:00 +24°C° 0.6 mm 2 mps 631 mmHg 53%
    17:00 +23°C° 0.6 mm 2 mps 630 mmHg 60%
    18:00 +21°C° 0.6 mm 2 mps 630 mmHg 67%
    19:00 +19°C° 0.2 mm 1 mps 629 mmHg 74%
    20:00 +16°C° 0.2 mm 1 mps 629 mmHg 81%
    21:00 +14°C° 0.2 mm 1 mps 628 mmHg 89%
    22:00 +14°C° 0.2 mm 1 mps 628 mmHg 89%
    23:00 +13°C° 0.2 mm 1 mps 628 mmHg 89%

    25 June, Sunday

    Time Temperature Precipitation Wind Pressure Humidity
    00:00 +13°C° 0.2 mm 1 mps 628 mmHg 88%
    01:00 +12°C° 0 mm 1 mps 628 mmHg 87%
    02:00 +12°C° 0 mm 1 mps 627 mmHg 86%
    03:00 +12°C° 0 mm 1 mps 627 mmHg 84%
    04:00 +13°C° 0 mm 1 mps 628 mmHg 80%
    05:00 +14°C° 0 mm 1 mps 628 mmHg 76%
    06:00 +15°C° 0 mm 1 mps 629 mmHg 72%
    07:00 +18°C° 0 mm 1 mps 629 mmHg 65%
    08:00 +19°C° 0 mm 2 mps 630 mmHg 57%
    09:00 +21°C° 0 mm 2 mps 631 mmHg 50%
    10:00 +23°C° 0.2 mm 2 mps 631 mmHg 49%
    11:00 +24°C° 0.2 mm 3 mps 631 mmHg 47%
    12:00 +25°C° 0.2 mm 3 mps 631 mmHg 46%
    13:00 +24°C° 1.1 mm 3 mps 631 mmHg 49%
    14:00 +24°C° 1.1 mm 2 mps 630 mmHg 53%
    15:00 +23°C° 1.1 mm 2 mps 630 mmHg 57%
    16:00 +21°C° 0.6 mm 2 mps 629 mmHg 62%
    17:00 +21°C° 0.6 mm 1 mps 629 mmHg 67%
    18:00 +20°C° 0.6 mm 1 mps 628 mmHg 72%
    19:00 +19°C° 0.5 mm 1 mps 628 mmHg 77%
    20:00 +16°C° 0.5 mm 1 mps 628 mmHg 82%
    21:00 +15°C° 0.5 mm 1 mps 627 mmHg 87%
    22:00 +14°C° 0.2 mm 1 mps 627 mmHg 88%
    23:00 +14°C° 0.2 mm 1 mps 626 mmHg 89%

    26 June, Monday

    Time Temperature Precipitation Wind Pressure Humidity
    00:00 +13°C° 0.2 mm 1 mps 626 mmHg 90%
    01:00 +13°C° 0.2 mm 1 mps 625 mmHg 90%
    02:00 +13°C° 0.2 mm 1 mps 625 mmHg 90%
    03:00 +13°C° 0.2 mm 1 mps 625 mmHg 90%
    04:00 +14°C° 0 mm 1 mps 625 mmHg 87%
    05:00 +15°C° 0 mm 1 mps 625 mmHg 83%
    06:00 +15°C° 0 mm 2 mps 625 mmHg 80%
    07:00 +17°C° 0.2 mm 2 mps 626 mmHg 73%
    08:00 +18°C° 0.2 mm 2 mps 626 mmHg 65%
    09:00 +19°C° 0.2 mm 2 mps 626 mmHg 58%
    10:00 +19°C° 0.3 mm 2 mps 626 mmHg 57%
    11:00 +20°C° 0.3 mm 2 mps 626 mmHg 56%
    12:00 +20°C° 0.3 mm 2 mps 625 mmHg 55%
    13:00 +19°C° 1.3 mm 2 mps 625 mmHg 59%
    14:00 +19°C° 1.3 mm 2 mps 625 mmHg 63%
    15:00 +18°C° 1.3 mm 2 mps 624 mmHg 67%
    16:00 +18°C° 0.9 mm 2 mps 624 mmHg 71%
    17:00 +17°C° 0.9 mm 2 mps 623 mmHg 74%
    18:00 +17°C° 0.9 mm 2 mps 623 mmHg 77%
    19:00 +15°C° 0.3 mm 1 mps 623 mmHg 81%
    20:00 +13°C° 0.3 mm 1 mps 622 mmHg 85%
    21:00 +12°C° 0.3 mm 1 mps 622 mmHg 89%
    22:00 +11°C° 0.1 mm 1 mps 622 mmHg 90%
    23:00 +11°C° 0.1 mm 1 mps 622 mmHg 90%

    27 June, Tuesday

    Time Temperature Precipitation Wind Pressure Humidity
    00:00 +11°C° 0.1 mm 1 mps 621 mmHg 90%
    01:00 +11°C° 0.1 mm 1 mps 621 mmHg 90%
    02:00 +10°C° 0.1 mm 1 mps 621 mmHg 91%
    03:00 +10°C° 0.1 mm 1 mps 621 mmHg 91%
    04:00 +11°C° 0.1 mm 1 mps 622 mmHg 89%
    05:00 +12°C° 0.1 mm 1 mps 622 mmHg 87%
    06:00 +14°C° 0.1 mm 1 mps 623 mmHg 84%
    07:00 +15°C° 0.2 mm 1 mps 623 mmHg 81%
    08:00 +16°C° 0.2 mm 2 mps 624 mmHg 77%
    09:00 +17°C° 0.2 mm 2 mps 624 mmHg 73%
    10:00 +17°C° 0.4 mm 2 mps 624 mmHg 70%
    11:00 +18°C° 0.4 mm 3 mps 624 mmHg 66%
    12:00 +19°C° 0.4 mm 3 mps 624 mmHg 63%
    13:00 +18°C° 0.6 mm 3 mps 624 mmHg 64%
    14:00 +18°C° 0.6 mm 3 mps 623 mmHg 65%
    15:00 +18°C° 0.6 mm 3 mps 623 mmHg 66%
    16:00 +17°C° 0.7 mm 2 mps 623 mmHg 70%
    17:00 +17°C° 0.7 mm 2 mps 622 mmHg 74%
    18:00 +16°C° 0.7 mm 2 mps 622 mmHg 78%
    19:00 +15°C° 1.2 mm 2 mps 621 mmHg 83%
    20:00 +13°C° 1.2 mm 2 mps 621 mmHg 88%
    21:00 +12°C° 1.2 mm 2 mps 621 mmHg 92%
    22:00 +12°C° 0.9 mm 2 mps 620 mmHg 93%
    23:00 +10°C° 0.9 mm 2 mps 620 mmHg 93%
    Show more